Weather History for Cody, WY

Change the Weather History Date:

Sunday, December 30, 2012

  Actual Average Record
Temperature  
Mean Temperature 16 °F -  
Max Temperature 26 °F 32 °F 65 °F (1937)
Min Temperature 5 °F 8 °F -29 °F (1990)
Degree Days  
Heating Degree Days 50    
Moisture  
Dew Point 7 °F    
Average Humidity 78    
Maximum Humidity 100    
Minimum Humidity 50    
Precipitation  
Precipitation 0.00 in - - ()
Sea Level Pressure  
Sea Level Pressure 29.94 in    
Wind  
Wind Speed 3 mph (ESE)    
Max Wind Speed 9 mph    
Max Gust Speed -    
Visibility 10 miles    
Events      
Averages and records for this station are not official NWS values.
T = Trace of Precipitation, MM = Missing Value Source: NWS Daily Summary

Daily Weather History Graph

Daily Weather History Graph

Search for Another Location

Airport:

Trip Planner

Search our weather history database for the weather conditions in past years. The results will help you decide how hot, cold, wet, or windy it might be!

Date:

Astronomy

Dec. 30, 2012 Rise Set
Actual Time 7:52 AM MST 4:45 PM MST
Civil Twilight 7:19 AM MST 5:18 PM MST
Nautical Twilight 6:42 AM MST 5:55 PM MST
Astronomical Twilight 6:07 AM MST 6:31 PM MST
Moon 7:26 PM MST (12/30) 8:57 AM MST (12/30)
Length of Visible Light 9h 59m
Length of Day
8h 52m
Waning Gibbous, 95% of the Moon is Illuminated
Dec 30
Waning Gibbous
Jan 4
Last Quarter
Jan 11
New
Jan 18
First Quarter
Jan 26
Full

Hourly Weather History & Observations

Time (MST) Temp. Windchill Dew Point Humidity Pressure Visibility Wind Dir Wind Speed Gust Speed Precip Events Conditions
12:15 AM 15.8 °F 6.1 °F 10.4 °F 79% 29.87 in 10.0 mi South 6.9 mph - N/A   Overcast
12:35 AM 12.2 °F 2.9 °F 6.8 °F 79% 29.87 in 10.0 mi NE 5.8 mph - N/A   Overcast
12:55 AM 14.0 °F 6.5 °F 10.4 °F 86% 29.87 in 10.0 mi NNE 4.6 mph - N/A   Overcast
1:15 AM 12.2 °F - 8.6 °F 85% 29.88 in 10.0 mi Calm Calm - N/A   Overcast
1:35 AM 12.2 °F - 8.6 °F 85% 29.88 in 10.0 mi Calm Calm - N/A   Overcast
1:55 AM 12.2 °F - 8.6 °F 85% 29.88 in 10.0 mi Calm Calm - N/A   Overcast
2:15 AM 12.2 °F 6.1 °F 10.4 °F 92% 29.89 in 10.0 mi East 3.5 mph - N/A   Overcast
2:35 AM 12.2 °F - 8.6 °F 85% 29.90 in 10.0 mi Calm Calm - N/A   Overcast
2:55 AM 12.2 °F - 8.6 °F 85% 29.90 in 10.0 mi Calm Calm - N/A   Overcast
3:15 AM 12.2 °F 4.3 °F 8.6 °F 85% 29.90 in 10.0 mi NNE 4.6 mph - N/A   Overcast
3:35 AM 12.2 °F - 8.6 °F 85% 29.90 in 10.0 mi Calm Calm - N/A   Overcast
3:55 AM 12.2 °F - 8.6 °F 85% 29.91 in 10.0 mi Calm Calm - N/A   Overcast
4:15 AM 12.2 °F - 8.6 °F 85% 29.92 in 10.0 mi Calm Calm - N/A   Overcast
4:35 AM 12.2 °F - 8.6 °F 85% 29.92 in 10.0 mi Calm Calm - N/A   Mostly Cloudy
5:15 AM 10.4 °F - 8.6 °F 92% 29.93 in 10.0 mi Calm Calm - N/A   Partly Cloudy
5:35 AM 10.4 °F - 6.8 °F 85% 29.93 in 10.0 mi Calm Calm - N/A   Clear
5:55 AM 8.6 °F - 6.8 °F 92% 29.94 in 10.0 mi Calm Calm - N/A   Clear
6:15 AM 10.4 °F - 6.8 °F 85% 29.94 in 10.0 mi Calm Calm - N/A   Clear
6:35 AM 8.6 °F 0.1 °F 5.0 °F 85% 29.95 in 10.0 mi South 4.6 mph - N/A   Scattered Clouds
6:55 AM 8.6 °F 2.0 °F 3.2 °F 79% 29.95 in 10.0 mi South 3.5 mph - N/A   Mostly Cloudy
7:35 AM 8.6 °F - 5.0 °F 85% 29.95 in 10.0 mi Calm Calm - N/A   Scattered Clouds
7:55 AM 8.6 °F -1.3 °F 3.2 °F 79% 29.95 in 10.0 mi South 5.8 mph - N/A   Mostly Cloudy
8:15 AM 8.6 °F 0.1 °F 5.0 °F 85% 29.96 in 10.0 mi South 4.6 mph - N/A   Partly Cloudy
8:35 AM 8.6 °F -1.3 °F 3.2 °F 79% 29.96 in 10.0 mi South 5.8 mph - N/A   Clear
8:55 AM 8.6 °F -1.3 °F 5.0 °F 85% 29.97 in 10.0 mi South 5.8 mph - N/A   Clear
9:15 AM 10.4 °F 2.2 °F 6.8 °F 85% 29.97 in 10.0 mi South 4.6 mph - N/A   Clear
9:35 AM 15.8 °F - 8.6 °F 73% 29.97 in 10.0 mi Calm Calm - N/A   Clear
9:55 AM 17.6 °F - 8.6 °F 68% 29.98 in 10.0 mi Calm Calm - N/A   Clear
10:15 AM 19.4 °F 14.3 °F 8.6 °F 63% 29.98 in 10.0 mi SSE 3.5 mph - N/A   Clear
10:35 AM 21.2 °F - 10.4 °F 63% 29.98 in 10.0 mi Calm Calm - N/A   Clear
10:55 AM 23.0 °F 17.0 °F 10.4 °F 59% 29.98 in 10.0 mi South 4.6 mph - N/A   Clear
11:15 AM 24.8 °F - 10.4 °F 54% 29.98 in 10.0 mi Calm Calm - N/A   Clear
11:35 AM 24.8 °F - 8.6 °F 50% 29.97 in 10.0 mi Calm Calm - N/A   Clear
11:55 AM 24.8 °F 20.5 °F 8.6 °F 50% 29.97 in 10.0 mi North 3.5 mph - N/A   Clear
12:15 PM 24.8 °F 20.5 °F 10.4 °F 54% 29.96 in 10.0 mi North 3.5 mph - N/A   Clear
12:35 PM 26.6 °F 22.6 °F 12.2 °F 55% 29.95 in 10.0 mi North 3.5 mph - N/A   Clear
12:55 PM 26.6 °F - 10.4 °F 51% 29.95 in 10.0 mi Calm Calm - N/A   Clear
1:15 PM 24.8 °F - 10.4 °F 54% 29.94 in 10.0 mi Calm Calm - N/A   Clear
1:35 PM 26.6 °F - 10.4 °F 51% 29.94 in 10.0 mi Calm Calm - N/A   Clear
1:55 PM 26.6 °F - 10.4 °F 51% 29.94 in 10.0 mi Calm Calm - N/A   Clear
2:35 PM 26.6 °F 20.0 °F 12.2 °F 55% 29.94 in 10.0 mi ESE 5.8 mph - N/A   Clear
3:15 PM 24.8 °F 19.1 °F 10.4 °F 54% 29.95 in 10.0 mi East 4.6 mph - N/A   Clear
3:35 PM 23.0 °F 15.8 °F 10.4 °F 59% 29.95 in 10.0 mi ENE 5.8 mph - N/A   Clear
3:55 PM 19.4 °F 9.5 °F 10.4 °F 68% 29.95 in 10.0 mi ENE 8.1 mph - N/A   Clear
4:35 PM 15.8 °F 4.2 °F 10.4 °F 79% 29.96 in 10.0 mi NE 9.2 mph - N/A   Clear
4:55 PM 14.0 °F 3.9 °F 8.6 °F 79% 29.97 in 10.0 mi NE 6.9 mph - N/A   Clear
5:15 PM 12.2 °F 0.7 °F 8.6 °F 85% 29.96 in 10.0 mi NE 8.1 mph - N/A   Clear
5:35 PM 12.2 °F 4.3 °F 8.6 °F 85% 29.97 in 10.0 mi NE 4.6 mph - N/A   Clear
5:55 PM 12.2 °F 4.3 °F 8.6 °F 85% 29.97 in 10.0 mi ESE 4.6 mph - N/A   Clear
6:15 PM 12.2 °F 6.1 °F 8.6 °F 85% 29.98 in 10.0 mi ENE 3.5 mph - N/A   Clear
6:35 PM 10.4 °F - 6.8 °F 85% 29.98 in 10.0 mi Calm Calm - N/A   Clear
6:55 PM 6.8 °F - 1.4 °F 79% 29.97 in 10.0 mi Calm Calm - N/A   Clear
7:15 PM 8.6 °F - 3.2 °F 79% 29.98 in 10.0 mi Calm Calm - N/A   Clear
7:35 PM 6.8 °F -2.0 °F 3.2 °F 85% 29.97 in 10.0 mi South 4.6 mph - N/A   Clear
8:15 PM 5.0 °F -6.9 °F 3.2 °F 92% 29.96 in 10.0 mi South 6.9 mph - N/A   Clear
8:35 PM 8.6 °F -2.6 °F 5.0 °F 85% 29.95 in 10.0 mi SSE 6.9 mph - N/A   Clear
8:55 PM 6.8 °F -4.8 °F 3.2 °F 85% 29.95 in 10.0 mi South 6.9 mph - N/A   Clear
9:15 PM 5.0 °F - 1.4 °F 85% 29.95 in 10.0 mi Calm Calm - N/A   Clear
9:35 PM 5.0 °F - 5.0 °F 100% 29.95 in 10.0 mi Calm Calm - N/A   Clear
9:55 PM 6.8 °F - 5.0 °F 92% 29.94 in 10.0 mi Calm Calm - N/A   Clear
10:15 PM 6.8 °F - 5.0 °F 92% 29.94 in 10.0 mi Calm Calm - N/A   Clear
10:35 PM 6.8 °F - 5.0 °F 92% 29.94 in 10.0 mi Calm Calm - N/A   Clear
10:55 PM 6.8 °F - 1.4 °F 79% 29.95 in 10.0 mi Calm Calm - N/A   Clear
11:15 PM 8.6 °F - 6.8 °F 92% 29.95 in 10.0 mi Calm Calm - N/A   Clear
11:35 PM 6.8 °F - 1.4 °F 79% 29.95 in 10.0 mi Calm Calm - N/A   Clear
11:55 PM 6.8 °F - 3.2 °F 85% 29.95 in 10.0 mi Calm Calm - N/A   Clear